Find Starlink 32133

NORAD ID: 60333 Int'l Des: 2024-136 Owner: SPXS Country: US Constellation: starlink operational
LEOCIRCULAR

Live-Position

3D-Globus wird geladen...

Über Starlink 32133

Beschreibung wird geladen...

Nächste Überflüge

Passes for default location (London). Set your location on the main map for personalized predictions.

Höhenverlauf

Loading altitude history...

Zweizeiliger Elementsatz

1 60333U 24136E 26134.28154276 .00000352 00000-0 24008-4 0 9990
2 60333 53.1590 131.2349 0001120 82.4761 277.6367 15.30195439 99708
Epoch: 14. Mai 2026 • Age: 6 hours

Aktueller Status

Höhe 485.5 km
Geschwindigkeit 7.62 km/s
Subsatellitenpunkt -31.74°S, 37.6°E
Startdatum 2. Aug. 2024
Alter 1.7 years
Typ internet

Technische Details

Klassifizierung Payload
Masse 730.00 kg
Trockenmasse 700.00 kg
Gesamtmasse 730.00 kg
Länge 0.30 m
Durchmesser 4.10 m
Spannweite 29.00 m
Form Box + pan
Hersteller SPXS
Bus-Typ Starlink V2M
Phasenstatus In Orbit
Besitzer/Staat SPXS/US

Most Searched